Year,Month,Day,Hour,Minute,Value (Times are PST for windgust in km/hr)
2019,06,13,00,02,1.60
2019,06,13,00,20,14.50
2019,06,13,00,21,14.50
2019,06,13,00,22,11.30
2019,06,13,00,27,1.60
2019,06,13,00,28,1.60
2019,06,13,00,38,1.60
2019,06,13,00,39,1.60
2019,06,13,00,41,1.60
2019,06,13,00,43,1.60
2019,06,13,00,45,1.60
2019,06,13,00,47,1.60
2019,06,13,00,48,1.60
2019,06,13,00,56,3.20
2019,06,13,00,57,3.20
2019,06,13,00,59,3.20
2019,06,13,01,00,11.30
2019,06,13,01,01,1.60
2019,06,13,01,08,1.60
2019,06,13,01,09,11.30
2019,06,13,01,10,9.60
2019,06,13,01,13,1.60
2019,06,13,01,14,12.90
2019,06,13,01,15,11.30
2019,06,13,01,17,12.90
2019,06,13,01,18,9.60
2019,06,13,01,20,1.60
2019,06,13,01,21,11.30
2019,06,13,01,22,11.30
2019,06,13,01,23,12.90
2019,06,13,01,24,6.40
2019,06,13,01,25,3.20
2019,06,13,01,26,3.20
2019,06,13,01,27,1.60
2019,06,13,01,28,1.60
2019,06,13,01,29,1.60
2019,06,13,01,33,1.60
2019,06,13,01,41,1.60
2019,06,13,01,42,1.60
2019,06,13,01,44,1.60
2019,06,13,01,49,1.60
2019,06,13,02,01,3.20
2019,06,13,02,04,1.60
2019,06,13,02,20,1.60
2019,06,13,02,31,14.50
2019,06,13,02,32,11.30
2019,06,13,02,33,1.60
2019,06,13,02,35,1.60
2019,06,13,02,36,1.60
2019,06,13,02,38,1.60
2019,06,13,02,39,6.40
2019,06,13,02,40,8.10
2019,06,13,02,41,9.60
2019,06,13,02,42,6.40
2019,06,13,02,44,4.80
2019,06,13,02,45,1.60
2019,06,13,02,46,9.60
2019,06,13,02,47,8.10
2019,06,13,02,48,6.40
2019,06,13,02,49,6.40
2019,06,13,03,31,1.60
2019,06,13,03,59,1.60
2019,06,13,04,01,1.60
2019,06,13,04,02,1.60
2019,06,13,04,08,3.20
2019,06,13,04,10,1.60
2019,06,13,04,11,1.60
2019,06,13,04,12,11.30
2019,06,13,04,13,8.10
2019,06,13,04,30,1.60
2019,06,13,04,31,1.60
2019,06,13,04,54,1.60
2019,06,13,05,11,1.60
2019,06,13,05,12,1.60
2019,06,13,05,17,1.60
2019,06,13,05,24,1.60
2019,06,13,05,29,3.20
2019,06,13,05,30,1.60
2019,06,13,05,33,1.60
2019,06,13,05,37,1.60
2019,06,13,05,52,1.60
2019,06,13,05,54,3.20
2019,06,13,06,05,1.60
2019,06,13,06,18,1.60
2019,06,13,07,03,1.60
2019,06,13,07,04,1.60
2019,06,13,07,07,1.60
2019,06,13,07,08,1.60
2019,06,13,07,09,1.60
2019,06,13,07,10,1.60
2019,06,13,07,11,1.60
2019,06,13,07,12,1.60
2019,06,13,07,17,11.30
2019,06,13,07,18,9.60
2019,06,13,07,20,11.30
2019,06,13,07,21,24.20
2019,06,13,07,22,14.50
2019,06,13,07,23,20.90
2019,06,13,07,24,24.20
2019,06,13,07,25,16.10
2019,06,13,07,26,17.70
2019,06,13,07,27,12.90
2019,06,13,07,28,12.90
2019,06,13,07,29,14.50
2019,06,13,07,30,12.90
2019,06,13,07,31,14.50
2019,06,13,07,32,12.90
2019,06,13,07,33,20.90
2019,06,13,07,34,24.20
2019,06,13,07,35,29.00
2019,06,13,07,36,29.00
2019,06,13,07,37,25.70
2019,06,13,07,38,30.60
2019,06,13,07,39,27.40
2019,06,13,07,40,24.20
2019,06,13,07,41,27.40
2019,06,13,07,42,29.00
2019,06,13,07,43,19.30
2019,06,13,07,44,14.50
2019,06,13,07,45,29.00
2019,06,13,07,46,30.60
2019,06,13,07,47,22.50
2019,06,13,07,48,1.60
2019,06,13,07,49,14.50
2019,06,13,07,50,14.50
2019,06,13,07,51,11.30
2019,06,13,07,52,19.30
2019,06,13,07,53,22.50
2019,06,13,07,54,19.30
2019,06,13,07,55,20.90
2019,06,13,07,56,9.60
2019,06,13,07,57,14.50
2019,06,13,07,58,14.50
2019,06,13,07,59,16.10
2019,06,13,08,00,14.50
2019,06,13,08,01,14.50
2019,06,13,08,04,12.90
2019,06,13,08,07,3.20
2019,06,13,08,08,1.60
2019,06,13,08,09,1.60
2019,06,13,08,10,1.60
2019,06,13,08,11,16.10
2019,06,13,08,12,9.60
2019,06,13,08,13,16.10
2019,06,13,08,14,9.60
2019,06,13,08,15,6.40
2019,06,13,08,16,1.60
2019,06,13,08,17,9.60
2019,06,13,08,18,4.80
2019,06,13,08,19,1.60
2019,06,13,08,20,14.50
2019,06,13,08,21,14.50
2019,06,13,08,22,12.90
2019,06,13,08,23,1.60
2019,06,13,08,24,1.60
2019,06,13,08,25,3.20
2019,06,13,08,26,1.60
2019,06,13,08,27,3.20
2019,06,13,08,28,1.60
2019,06,13,08,29,1.60
2019,06,13,08,32,1.60
2019,06,13,08,33,14.50
2019,06,13,08,34,8.10
2019,06,13,08,38,1.60
2019,06,13,08,41,3.20
2019,06,13,08,42,11.30
2019,06,13,08,43,16.10
2019,06,13,08,44,9.60
2019,06,13,08,45,1.60
2019,06,13,08,46,17.70
2019,06,13,08,47,16.10
2019,06,13,08,48,17.70
2019,06,13,08,49,20.90
2019,06,13,08,50,19.30
2019,06,13,08,51,16.10
2019,06,13,08,52,20.90
2019,06,13,08,53,12.90
2019,06,13,08,54,8.10
2019,06,13,08,55,11.30
2019,06,13,08,56,12.90
2019,06,13,08,57,3.20
2019,06,13,08,58,8.10
2019,06,13,08,59,14.50
2019,06,13,09,00,11.30
2019,06,13,09,01,16.10
2019,06,13,09,02,16.10
2019,06,13,09,03,9.60
2019,06,13,09,04,1.60
2019,06,13,09,05,3.20
2019,06,13,09,06,4.80
2019,06,13,09,07,12.90
2019,06,13,09,08,1.60
2019,06,13,09,09,12.90
2019,06,13,09,10,3.20
2019,06,13,09,11,16.10
2019,06,13,09,12,14.50
2019,06,13,09,13,9.60
2019,06,13,09,15,12.90
2019,06,13,09,16,9.60
2019,06,13,09,17,20.90
2019,06,13,09,18,16.10
2019,06,13,09,19,20.90
2019,06,13,09,20,17.70
2019,06,13,09,21,25.70
2019,06,13,09,22,25.70
2019,06,13,09,23,16.10
2019,06,13,09,24,16.10
2019,06,13,09,25,4.80
2019,06,13,09,26,11.30
2019,06,13,09,27,12.90
2019,06,13,09,28,24.20
2019,06,13,09,29,27.40
2019,06,13,09,30,24.20
2019,06,13,09,31,19.30
2019,06,13,09,32,17.70
2019,06,13,09,33,17.70
2019,06,13,09,34,16.10
2019,06,13,09,35,9.60
2019,06,13,09,36,16.10
2019,06,13,09,37,29.00
2019,06,13,09,38,25.70
2019,06,13,09,39,22.50
2019,06,13,09,40,20.90
2019,06,13,09,41,14.50
2019,06,13,09,42,16.10
2019,06,13,09,43,12.90
2019,06,13,09,44,16.10
2019,06,13,09,45,17.70
2019,06,13,09,46,17.70
2019,06,13,09,47,14.50
2019,06,13,09,48,16.10
2019,06,13,09,49,16.10
2019,06,13,09,50,20.90
2019,06,13,09,51,20.90
2019,06,13,09,52,20.90
2019,06,13,09,53,16.10
2019,06,13,09,54,20.90
2019,06,13,09,55,14.50
2019,06,13,09,56,19.30
2019,06,13,09,57,12.90
2019,06,13,09,58,14.50
2019,06,13,09,59,14.50
2019,06,13,10,00,16.10
2019,06,13,10,01,14.50
2019,06,13,10,02,8.10
2019,06,13,10,03,20.90
2019,06,13,10,04,16.10
2019,06,13,10,05,16.10
2019,06,13,10,06,14.50
2019,06,13,10,07,1.60
2019,06,13,10,08,14.50
2019,06,13,10,09,9.60
2019,06,13,10,10,1.60
2019,06,13,10,12,4.80
2019,06,13,10,14,16.10
2019,06,13,10,15,17.70
2019,06,13,10,16,16.10
2019,06,13,10,17,16.10
2019,06,13,10,18,20.90
2019,06,13,10,19,24.20
2019,06,13,10,20,16.10
2019,06,13,10,21,17.70
2019,06,13,10,22,19.30
2019,06,13,10,23,19.30
2019,06,13,10,24,11.30
2019,06,13,10,25,22.50
2019,06,13,10,26,22.50
2019,06,13,10,27,17.70
2019,06,13,10,28,27.40
2019,06,13,10,29,24.20
2019,06,13,10,30,24.20
2019,06,13,10,31,24.20
2019,06,13,10,32,24.20
2019,06,13,10,33,20.90
2019,06,13,10,34,19.30
2019,06,13,10,35,20.90
2019,06,13,10,36,20.90
2019,06,13,10,37,17.70
2019,06,13,10,38,16.10
2019,06,13,10,39,14.50
2019,06,13,10,40,16.10
2019,06,13,10,41,14.50
2019,06,13,10,42,24.20
2019,06,13,10,43,24.20
2019,06,13,10,44,22.50
2019,06,13,10,45,22.50
2019,06,13,10,46,20.90
2019,06,13,10,47,29.00
2019,06,13,10,48,37.00
2019,06,13,10,49,32.20
2019,06,13,10,50,29.00
2019,06,13,10,51,25.70
2019,06,13,10,52,27.40
2019,06,13,10,53,19.30
2019,06,13,10,54,20.90
2019,06,13,10,55,20.90
2019,06,13,10,56,25.70
2019,06,13,10,57,27.40
2019,06,13,10,58,32.20
2019,06,13,10,59,30.60
2019,06,13,11,00,20.90
2019,06,13,11,01,29.00
2019,06,13,11,02,29.00
2019,06,13,11,03,33.80
2019,06,13,11,04,27.40
2019,06,13,11,05,29.00
2019,06,13,11,06,22.50
2019,06,13,11,07,25.70
2019,06,13,11,08,29.00
2019,06,13,11,09,25.70
2019,06,13,11,10,29.00
2019,06,13,11,11,17.70
2019,06,13,11,12,11.30
2019,06,13,11,13,12.90
2019,06,13,11,14,17.70
2019,06,13,11,15,25.70
2019,06,13,11,16,20.90
2019,06,13,11,17,20.90
2019,06,13,11,18,19.30
2019,06,13,11,19,8.10
2019,06,13,11,20,1.60
2019,06,13,11,21,20.90
2019,06,13,11,22,19.30
2019,06,13,11,23,29.00
2019,06,13,11,24,30.60
2019,06,13,11,25,32.20
2019,06,13,11,26,20.90
2019,06,13,11,27,19.30
2019,06,13,11,28,19.30
2019,06,13,11,29,19.30
2019,06,13,11,30,19.30
2019,06,13,11,31,17.70
2019,06,13,11,32,19.30
2019,06,13,11,33,22.50
2019,06,13,11,34,24.20
2019,06,13,11,35,22.50
2019,06,13,11,36,14.50
2019,06,13,11,37,17.70
2019,06,13,11,38,22.50
2019,06,13,11,39,20.90
2019,06,13,11,40,29.00
2019,06,13,11,41,24.20
2019,06,13,11,42,20.90
2019,06,13,11,43,17.70
2019,06,13,11,44,19.30
2019,06,13,11,45,20.90
2019,06,13,11,46,19.30
2019,06,13,11,47,19.30
2019,06,13,11,48,27.40
2019,06,13,11,49,24.20
2019,06,13,11,50,29.00
2019,06,13,11,51,25.70
2019,06,13,11,52,17.70
2019,06,13,11,53,12.90
2019,06,13,11,54,14.50
2019,06,13,11,55,22.50
2019,06,13,11,56,20.90
2019,06,13,11,57,14.50
2019,06,13,11,58,17.70
2019,06,13,11,59,22.50
2019,06,13,12,00,27.40
2019,06,13,12,01,24.20
2019,06,13,12,02,14.50
2019,06,13,12,03,22.50
2019,06,13,12,04,19.30
2019,06,13,12,05,24.20
2019,06,13,12,06,32.20
2019,06,13,12,07,25.70
2019,06,13,12,08,25.70
2019,06,13,12,09,27.40
2019,06,13,12,10,24.20
2019,06,13,12,11,22.50
2019,06,13,12,12,24.20
2019,06,13,12,13,24.20
2019,06,13,12,14,22.50
2019,06,13,12,15,25.70
2019,06,13,12,16,27.40
2019,06,13,12,17,20.90
2019,06,13,12,18,24.20
2019,06,13,12,19,27.40
2019,06,13,12,20,25.70
2019,06,13,12,21,27.40
2019,06,13,12,22,25.70
2019,06,13,12,23,29.00
2019,06,13,12,24,29.00
2019,06,13,12,25,20.90
2019,06,13,12,26,20.90
2019,06,13,12,27,11.30
2019,06,13,12,28,19.30
2019,06,13,12,29,20.90
2019,06,13,12,30,9.60
2019,06,13,12,31,17.70
2019,06,13,12,32,16.10
2019,06,13,12,33,14.50
2019,06,13,12,34,16.10
2019,06,13,12,35,19.30
2019,06,13,12,36,19.30
2019,06,13,12,37,24.20
2019,06,13,12,38,27.40
2019,06,13,12,39,27.40
2019,06,13,12,40,20.90
2019,06,13,12,41,24.20
2019,06,13,12,42,22.50
2019,06,13,12,43,19.30
2019,06,13,12,44,22.50
2019,06,13,12,45,22.50
2019,06,13,12,46,17.70
2019,06,13,12,47,24.20
2019,06,13,12,48,27.40
2019,06,13,12,49,24.20
2019,06,13,12,50,20.90
2019,06,13,12,51,29.00
2019,06,13,12,52,24.20
2019,06,13,12,53,17.70
2019,06,13,12,54,24.20
2019,06,13,12,55,24.20
2019,06,13,12,56,35.40
2019,06,13,12,57,27.40
2019,06,13,12,58,22.50
2019,06,13,12,59,24.20
2019,06,13,13,00,22.50
2019,06,13,13,01,20.90
2019,06,13,13,02,9.60
2019,06,13,13,03,24.20
2019,06,13,13,04,24.20
2019,06,13,13,05,12.90
2019,06,13,13,06,14.50
2019,06,13,13,07,22.50
2019,06,13,13,08,22.50
2019,06,13,13,09,17.70
2019,06,13,13,10,22.50
2019,06,13,13,11,29.00
2019,06,13,13,12,27.40
2019,06,13,13,13,25.70
2019,06,13,13,14,17.70
2019,06,13,13,15,22.50
2019,06,13,13,16,25.70
2019,06,13,13,17,32.20
2019,06,13,13,18,19.30
2019,06,13,13,19,27.40
2019,06,13,13,20,29.00
2019,06,13,13,21,24.20
2019,06,13,13,22,14.50
2019,06,13,13,23,16.10
2019,06,13,13,24,20.90
2019,06,13,13,25,12.90
2019,06,13,13,26,17.70
2019,06,13,13,27,16.10
2019,06,13,13,28,20.90
2019,06,13,13,29,9.60
2019,06,13,13,30,12.90
2019,06,13,13,31,24.20
2019,06,13,13,32,8.10
2019,06,13,13,33,12.90
2019,06,13,13,34,16.10
2019,06,13,13,35,12.90
2019,06,13,13,36,14.50
2019,06,13,13,37,20.90
2019,06,13,13,39,17.70
2019,06,13,13,40,14.50
2019,06,13,13,41,11.30
2019,06,13,13,42,9.60
2019,06,13,13,43,12.90
2019,06,13,13,44,17.70
2019,06,13,13,45,3.20
2019,06,13,13,46,16.10
2019,06,13,13,47,19.30
2019,06,13,13,48,1.60
2019,06,13,13,49,1.60
2019,06,13,13,50,1.60
2019,06,13,13,51,9.60
2019,06,13,13,52,9.60
2019,06,13,13,53,17.70
2019,06,13,13,54,17.70
2019,06,13,13,55,3.20
2019,06,13,13,56,19.30
2019,06,13,13,57,11.30
2019,06,13,13,58,4.80
2019,06,13,13,59,8.10
2019,06,13,14,00,12.90
2019,06,13,14,03,4.80
2019,06,13,14,04,19.30
2019,06,13,14,05,17.70
2019,06,13,14,06,8.10
2019,06,13,14,07,9.60
2019,06,13,14,10,4.80
2019,06,13,14,11,1.60
2019,06,13,14,12,1.60
2019,06,13,14,13,27.40
2019,06,13,14,14,11.30
2019,06,13,14,15,11.30
2019,06,13,14,16,4.80
2019,06,13,14,17,4.80
2019,06,13,14,18,8.10
2019,06,13,14,19,3.20
2019,06,13,14,20,14.50
2019,06,13,14,21,14.50
2019,06,13,14,22,14.50
2019,06,13,14,23,9.60
2019,06,13,14,24,3.20
2019,06,13,14,26,1.60
2019,06,13,14,27,1.60
2019,06,13,14,28,11.30
2019,06,13,14,29,1.60
2019,06,13,14,31,1.60
2019,06,13,14,32,1.60
2019,06,13,14,33,1.60
2019,06,13,14,34,12.90
2019,06,13,14,35,16.10
2019,06,13,14,36,16.10
2019,06,13,14,37,19.30
2019,06,13,14,38,22.50
2019,06,13,14,39,11.30
2019,06,13,14,40,16.10
2019,06,13,14,41,9.60
2019,06,13,14,42,20.90
2019,06,13,14,43,4.80
2019,06,13,14,44,17.70
2019,06,13,14,45,20.90
2019,06,13,14,46,20.90
2019,06,13,14,47,17.70
2019,06,13,14,48,17.70
2019,06,13,14,49,14.50
2019,06,13,14,50,19.30
2019,06,13,14,51,64.40
2019,06,13,14,52,37.00
2019,06,13,14,53,43.50
2019,06,13,14,54,24.20
2019,06,13,14,55,25.70
2019,06,13,14,56,12.90
2019,06,13,14,57,27.40
2019,06,13,14,58,29.00
2019,06,13,14,59,59.50
2019,06,13,15,00,40.20
2019,06,13,15,01,67.60
2019,06,13,15,02,33.80
2019,06,13,15,03,53.10
2019,06,13,15,04,56.30
2019,06,13,15,05,40.20
2019,06,13,15,06,67.60
2019,06,13,15,07,48.30
2019,06,13,15,08,53.10
2019,06,13,15,09,35.40
2019,06,13,15,10,43.50
2019,06,13,15,11,32.20
2019,06,13,15,12,37.00
2019,06,13,15,13,38.60
2019,06,13,15,14,48.30
2019,06,13,15,15,37.00
2019,06,13,15,16,46.70
2019,06,13,15,17,49.90
2019,06,13,15,18,40.20
2019,06,13,15,19,59.50
2019,06,13,15,20,72.40
2019,06,13,15,21,72.40
2019,06,13,15,22,51.50
2019,06,13,15,23,40.20
2019,06,13,15,24,27.40
2019,06,13,15,25,19.30
2019,06,13,15,26,62.70
2019,06,13,15,27,49.90
2019,06,13,15,28,37.00
2019,06,13,15,29,25.70
2019,06,13,15,30,46.70
2019,06,13,15,31,38.60
2019,06,13,15,32,37.00
2019,06,13,15,33,37.00
2019,06,13,15,34,51.50
2019,06,13,15,35,51.50
2019,06,13,15,36,69.20
2019,06,13,15,37,95.00
2019,06,13,15,38,72.40
2019,06,13,15,39,66.00
2019,06,13,15,40,59.50
2019,06,13,15,41,54.70
2019,06,13,15,42,49.90
2019,06,13,15,43,64.40
2019,06,13,15,44,85.30
2019,06,13,15,45,53.10
2019,06,13,15,46,57.90
2019,06,13,15,47,85.30
2019,06,13,15,48,74.00
2019,06,13,15,49,54.70
2019,06,13,15,50,56.30
2019,06,13,15,51,98.20
2019,06,13,15,52,62.70
2019,06,13,15,53,85.30
2019,06,13,15,54,38.60
2019,06,13,15,55,40.20
2019,06,13,15,56,82.10
2019,06,13,15,57,43.50
2019,06,13,15,58,48.30
2019,06,13,15,59,46.70
2019,06,13,16,00,48.30
2019,06,13,16,01,45.10
2019,06,13,16,02,46.70
2019,06,13,16,03,90.10
2019,06,13,16,04,78.80
2019,06,13,16,05,56.30
2019,06,13,16,06,80.50
2019,06,13,16,07,40.20
2019,06,13,16,08,41.80
2019,06,13,16,09,67.60
2019,06,13,16,10,48.30
2019,06,13,16,11,48.30
2019,06,13,16,12,41.80
2019,06,13,16,13,46.70
2019,06,13,16,14,43.50
2019,06,13,16,15,69.20
2019,06,13,16,16,70.80
2019,06,13,16,17,74.00
2019,06,13,16,18,80.50
2019,06,13,16,19,82.10
2019,06,13,16,20,53.10
2019,06,13,16,21,54.70
2019,06,13,16,22,72.40
2019,06,13,16,23,75.60
2019,06,13,16,24,70.80
2019,06,13,16,25,69.20
2019,06,13,16,26,85.30
2019,06,13,16,27,53.10
2019,06,13,16,28,85.30
2019,06,13,16,29,86.90
2019,06,13,16,30,74.00
2019,06,13,16,31,37.00
2019,06,13,16,32,83.70
2019,06,13,16,33,120.70
2019,06,13,16,34,72.40
2019,06,13,16,35,64.40
2019,06,13,16,36,61.20
2019,06,13,16,37,49.90
2019,06,13,16,38,91.70
2019,06,13,16,39,67.60
2019,06,13,16,40,75.60
2019,06,13,16,41,70.80
2019,06,13,16,42,93.30
2019,06,13,16,43,77.30
2019,06,13,16,44,56.30
2019,06,13,16,45,49.90
2019,06,13,16,46,99.80
2019,06,13,16,47,64.40
2019,06,13,16,48,91.70
2019,06,13,16,49,82.10
2019,06,13,16,50,90.10
2019,06,13,16,51,61.20
2019,06,13,16,52,51.50
2019,06,13,16,53,17.70
2019,06,13,16,54,19.30
2019,06,13,16,55,24.20
2019,06,13,16,56,33.80
2019,06,13,16,57,35.40
2019,06,13,16,58,43.50
2019,06,13,16,59,19.30
2019,06,13,17,00,46.70
2019,06,13,17,01,64.40
2019,06,13,17,02,66.00
2019,06,13,17,03,53.10
2019,06,13,17,04,22.50
2019,06,13,17,05,25.70
2019,06,13,17,06,22.50
2019,06,13,17,07,30.60
2019,06,13,17,08,46.70
2019,06,13,17,09,62.70
2019,06,13,17,10,66.00
2019,06,13,17,11,61.20
2019,06,13,17,12,56.30
2019,06,13,17,13,48.30
2019,06,13,17,14,37.00
2019,06,13,17,15,29.00
2019,06,13,17,16,33.80
2019,06,13,17,17,41.80
2019,06,13,17,18,56.30
2019,06,13,17,19,56.30
2019,06,13,17,20,57.90
2019,06,13,17,21,35.40
2019,06,13,17,22,62.70
2019,06,13,17,23,64.40
2019,06,13,17,24,49.90
2019,06,13,17,25,48.30
2019,06,13,17,26,56.30
2019,06,13,17,27,48.30
2019,06,13,17,28,30.60
2019,06,13,17,29,48.30
2019,06,13,17,30,70.80
2019,06,13,17,31,53.10
2019,06,13,17,32,38.60
2019,06,13,17,33,22.50
2019,06,13,17,34,35.40
2019,06,13,17,35,40.20
2019,06,13,17,36,54.70
2019,06,13,17,37,56.30
2019,06,13,17,38,38.60
2019,06,13,17,39,66.00
2019,06,13,17,40,46.70
2019,06,13,17,41,64.40
2019,06,13,17,42,30.60
2019,06,13,17,43,93.30
2019,06,13,17,44,48.30
2019,06,13,17,45,38.60
2019,06,13,17,46,75.60
2019,06,13,17,47,78.80
2019,06,13,17,48,70.80
2019,06,13,17,49,72.40
2019,06,13,17,50,43.50
2019,06,13,17,51,69.20
2019,06,13,17,52,57.90
2019,06,13,17,53,51.50
2019,06,13,17,54,20.90
2019,06,13,17,55,38.60
2019,06,13,17,56,46.70
2019,06,13,17,57,45.10
2019,06,13,17,58,35.40
2019,06,13,17,59,41.80
2019,06,13,18,00,22.50
2019,06,13,18,01,51.50
2019,06,13,18,02,29.00
2019,06,13,18,03,25.70
2019,06,13,18,04,43.50
2019,06,13,18,05,48.30
2019,06,13,18,06,56.30
2019,06,13,18,07,56.30
2019,06,13,18,08,30.60
2019,06,13,18,09,30.60
2019,06,13,18,10,37.00
2019,06,13,18,11,33.80
2019,06,13,18,12,20.90
2019,06,13,18,13,24.20
2019,06,13,18,14,48.30
2019,06,13,18,15,38.60
2019,06,13,18,16,37.00
2019,06,13,18,17,62.70
2019,06,13,18,18,46.70
2019,06,13,18,19,57.90
2019,06,13,18,20,33.80
2019,06,13,18,21,30.60
2019,06,13,18,22,33.80
2019,06,13,18,23,37.00
2019,06,13,18,24,35.40
2019,06,13,18,25,30.60
2019,06,13,18,26,29.00
2019,06,13,18,27,51.50
2019,06,13,18,28,53.10
2019,06,13,18,29,57.90
2019,06,13,18,30,51.50
2019,06,13,18,31,59.50
2019,06,13,18,32,45.10
2019,06,13,18,33,20.90
2019,06,13,18,34,27.40
2019,06,13,18,35,29.00
2019,06,13,18,36,25.70
2019,06,13,18,37,54.70
2019,06,13,18,38,37.00
2019,06,13,18,39,43.50
2019,06,13,18,40,45.10
2019,06,13,18,41,59.50
2019,06,13,18,42,41.80
2019,06,13,18,43,40.20
2019,06,13,18,44,29.00
2019,06,13,18,45,40.20
2019,06,13,18,46,43.50
2019,06,13,18,47,41.80
2019,06,13,18,48,66.00
2019,06,13,18,49,33.80
2019,06,13,18,50,25.70
2019,06,13,18,51,24.20
2019,06,13,18,52,30.60
2019,06,13,18,53,43.50
2019,06,13,18,54,35.40
2019,06,13,18,55,33.80
2019,06,13,18,56,24.20
2019,06,13,18,57,20.90
2019,06,13,18,58,32.20
2019,06,13,18,59,40.20
2019,06,13,19,00,35.40
2019,06,13,19,01,43.50
2019,06,13,19,02,33.80
2019,06,13,19,03,27.40
2019,06,13,19,04,40.20
2019,06,13,19,05,38.60
2019,06,13,19,06,35.40
2019,06,13,19,07,56.30
2019,06,13,19,08,49.90
2019,06,13,19,09,62.70
2019,06,13,19,10,62.70
2019,06,13,19,11,51.50
2019,06,13,19,12,38.60
2019,06,13,19,13,35.40
2019,06,13,19,14,40.20
2019,06,13,19,15,30.60
2019,06,13,19,16,64.40
2019,06,13,19,17,56.30
2019,06,13,19,18,59.50
2019,06,13,19,19,43.50
2019,06,13,19,20,35.40
2019,06,13,19,21,69.20
2019,06,13,19,22,77.30
2019,06,13,19,23,74.00
2019,06,13,19,24,53.10
2019,06,13,19,25,25.70
2019,06,13,19,26,37.00
2019,06,13,19,27,35.40
2019,06,13,19,28,45.10
2019,06,13,19,29,32.20
2019,06,13,19,30,22.50
2019,06,13,19,31,22.50
2019,06,13,19,32,19.30
2019,06,13,19,33,29.00
2019,06,13,19,34,22.50
2019,06,13,19,35,46.70
2019,06,13,19,36,46.70
2019,06,13,19,37,38.60
2019,06,13,19,38,41.80
2019,06,13,19,39,30.60
2019,06,13,19,40,37.00
2019,06,13,19,41,43.50
2019,06,13,19,42,29.00
2019,06,13,19,43,35.40
2019,06,13,19,44,24.20
2019,06,13,19,45,33.80
2019,06,13,19,46,22.50
2019,06,13,19,47,35.40
2019,06,13,19,48,35.40
2019,06,13,19,49,29.00
2019,06,13,19,50,35.40
2019,06,13,19,51,25.70
2019,06,13,19,52,29.00
2019,06,13,19,53,51.50
2019,06,13,19,54,32.20
2019,06,13,19,55,27.40
2019,06,13,19,56,33.80
2019,06,13,19,57,35.40
2019,06,13,19,58,25.70
2019,06,13,19,59,22.50
2019,06,13,20,00,33.80
2019,06,13,20,01,19.30
2019,06,13,20,02,22.50
2019,06,13,20,03,37.00
2019,06,13,20,04,19.30
2019,06,13,20,05,24.20
2019,06,13,20,06,45.10
2019,06,13,20,07,51.50
2019,06,13,20,08,27.40
2019,06,13,20,09,33.80
2019,06,13,20,10,41.80
2019,06,13,20,11,69.20
2019,06,13,20,12,41.80
2019,06,13,20,13,67.60
2019,06,13,20,14,56.30
2019,06,13,20,15,70.80
2019,06,13,20,16,51.50
2019,06,13,20,17,40.20
2019,06,13,20,18,43.50
2019,06,13,20,19,61.20
2019,06,13,20,20,53.10
2019,06,13,20,21,67.60
2019,06,13,20,22,41.80
2019,06,13,20,23,62.70
2019,06,13,20,24,56.30
2019,06,13,20,25,59.50
2019,06,13,20,26,25.70
2019,06,13,20,27,41.80
2019,06,13,20,28,43.50
2019,06,13,20,29,51.50
2019,06,13,20,30,54.70
2019,06,13,20,31,64.40
2019,06,13,20,32,38.60
2019,06,13,20,33,37.00
2019,06,13,20,34,38.60
2019,06,13,20,35,29.00
2019,06,13,20,36,56.30
2019,06,13,20,37,32.20
2019,06,13,20,38,48.30
2019,06,13,20,39,41.80
2019,06,13,20,40,61.20
2019,06,13,20,41,57.90
2019,06,13,20,42,46.70
2019,06,13,20,43,51.50
2019,06,13,20,44,49.90
2019,06,13,20,45,29.00
2019,06,13,20,46,56.30
2019,06,13,20,47,27.40
2019,06,13,20,48,56.30
2019,06,13,20,49,57.90
2019,06,13,20,50,33.80
2019,06,13,20,51,43.50
2019,06,13,20,52,66.00
2019,06,13,20,53,53.10
2019,06,13,20,54,49.90
2019,06,13,20,55,40.20
2019,06,13,20,56,32.20
2019,06,13,20,57,33.80
2019,06,13,20,58,40.20
2019,06,13,20,59,35.40
2019,06,13,21,00,48.30
2019,06,13,21,01,37.00
2019,06,13,21,02,40.20
2019,06,13,21,03,45.10
2019,06,13,21,04,40.20
2019,06,13,21,05,48.30
2019,06,13,21,06,35.40
2019,06,13,21,07,29.00
2019,06,13,21,08,46.70
2019,06,13,21,09,27.40
2019,06,13,21,10,27.40
2019,06,13,21,11,33.80
2019,06,13,21,12,59.50
2019,06,13,21,13,56.30
2019,06,13,21,14,43.50
2019,06,13,21,15,45.10
2019,06,13,21,16,46.70
2019,06,13,21,17,43.50
2019,06,13,21,18,49.90
2019,06,13,21,19,43.50
2019,06,13,21,20,43.50
2019,06,13,21,21,29.00
2019,06,13,21,22,45.10
2019,06,13,21,23,43.50
2019,06,13,21,24,54.70
2019,06,13,21,25,35.40
2019,06,13,21,26,62.70
2019,06,13,21,27,29.00
2019,06,13,21,28,37.00
2019,06,13,21,29,30.60
2019,06,13,21,30,38.60
2019,06,13,21,31,27.40
2019,06,13,21,32,25.70
2019,06,13,21,33,49.90
2019,06,13,21,34,37.00
2019,06,13,21,35,48.30
2019,06,13,21,36,35.40
2019,06,13,21,37,51.50
2019,06,13,21,38,48.30
2019,06,13,21,39,57.90
2019,06,13,21,40,54.70
2019,06,13,21,41,62.70
2019,06,13,21,42,51.50
2019,06,13,21,43,49.90
2019,06,13,21,44,46.70
2019,06,13,21,45,43.50
2019,06,13,21,46,45.10
2019,06,13,21,47,56.30
2019,06,13,21,48,51.50
2019,06,13,21,49,45.10
2019,06,13,21,50,38.60
2019,06,13,21,51,41.80
2019,06,13,21,52,33.80
2019,06,13,21,53,30.60
2019,06,13,21,54,40.20
2019,06,13,21,55,30.60
2019,06,13,21,56,30.60
2019,06,13,21,57,29.00
2019,06,13,21,58,35.40
2019,06,13,21,59,29.00
2019,06,13,22,00,32.20
2019,06,13,22,01,19.30
2019,06,13,22,02,35.40
2019,06,13,22,03,29.00
2019,06,13,22,04,40.20
2019,06,13,22,05,30.60
2019,06,13,22,06,24.20
2019,06,13,22,07,30.60
2019,06,13,22,08,30.60
2019,06,13,22,09,41.80
2019,06,13,22,10,35.40
2019,06,13,22,11,35.40
2019,06,13,22,12,25.70
2019,06,13,22,13,27.40
2019,06,13,22,14,41.80
2019,06,13,22,15,38.60
2019,06,13,22,16,43.50
2019,06,13,22,17,46.70
2019,06,13,22,18,30.60
2019,06,13,22,19,29.00
2019,06,13,22,20,29.00
2019,06,13,22,21,48.30
2019,06,13,22,22,48.30
2019,06,13,22,23,46.70
2019,06,13,22,24,40.20
2019,06,13,22,25,45.10
2019,06,13,22,26,27.40
2019,06,13,22,27,33.80
2019,06,13,22,28,53.10
2019,06,13,22,29,32.20
2019,06,13,22,30,35.40
2019,06,13,22,31,49.90
2019,06,13,22,32,49.90
2019,06,13,22,33,43.50
2019,06,13,22,34,45.10
2019,06,13,22,35,54.70
2019,06,13,22,36,74.00
2019,06,13,22,37,61.20
2019,06,13,22,38,57.90
2019,06,13,22,39,46.70
2019,06,13,22,40,45.10
2019,06,13,22,41,48.30
2019,06,13,22,42,53.10
2019,06,13,22,43,61.20
2019,06,13,22,44,56.30
2019,06,13,22,45,38.60
2019,06,13,22,46,27.40
2019,06,13,22,47,49.90
2019,06,13,22,48,43.50
2019,06,13,22,49,43.50
2019,06,13,22,50,32.20
2019,06,13,22,51,45.10
2019,06,13,22,52,33.80
2019,06,13,22,53,57.90
2019,06,13,22,54,27.40
2019,06,13,22,55,38.60
2019,06,13,22,56,51.50
2019,06,13,22,57,35.40
2019,06,13,22,58,48.30
2019,06,13,22,59,54.70
2019,06,13,23,00,38.60
2019,06,13,23,01,53.10
2019,06,13,23,02,43.50
2019,06,13,23,03,40.20
2019,06,13,23,04,29.00
2019,06,13,23,05,38.60
2019,06,13,23,06,37.00
2019,06,13,23,07,27.40
2019,06,13,23,08,30.60
2019,06,13,23,09,27.40
2019,06,13,23,10,40.20
2019,06,13,23,11,33.80
2019,06,13,23,12,43.50
2019,06,13,23,13,29.00
2019,06,13,23,14,24.20
2019,06,13,23,15,33.80
2019,06,13,23,16,40.20
2019,06,13,23,17,24.20
2019,06,13,23,18,16.10
2019,06,13,23,19,4.80
2019,06,13,23,20,8.10
2019,06,13,23,21,24.20
2019,06,13,23,22,24.20
2019,06,13,23,23,35.40
2019,06,13,23,24,24.20
2019,06,13,23,25,29.00
2019,06,13,23,26,30.60
2019,06,13,23,27,22.50
2019,06,13,23,28,14.50
2019,06,13,23,29,25.70
2019,06,13,23,30,17.70
2019,06,13,23,31,24.20
2019,06,13,23,32,27.40
2019,06,13,23,33,53.10